Вернуться в каталог

SL-14 DEB

АктивенPO
NORAD 45314·DEBRIS·🇷🇺 Russia

Запущен Aug 15, 1991 с Plesetsk Cosmodrome

Loading…

Ближайшие Пролёты (ближайшие 24 часа)

TLE

СвежийSource: Space-Track

Эпоха: Sep 13, 2026, 19:29 UTC

1 45314U 91056BC  26256.81232793 -.00000623  00000-0 -18321-2 0  9994
2 45314  82.5323  96.5173 0050179  67.3959 293.2456 13.09566070312884

Отслеживайте SL-14 DEB в реальном времени с AllMySat

Download on the App Store